CZ-4C DEB, 43280

Orbit data source: Space-Track

CZ-4C DEB, 43280 is space debris in LEO originally from a launch on Tue, 10 Apr 2018 UTC launched from the Jiuquan Satellite Launch Center, China (JSC). Debris objects in space refer to the collection of defunct objects orbiting the Earth. Examples of debris include non-operational satellites, rocket bodies, and fragments generated from explosions, collisions, or faulty payload assembly.

Loading next visibility...
Identifier
43280, 2018-034F
Orbit
LEO
Last TLE update
13 hours ago
Origin
Manufacturer
Unknown
Mission
Spacecraft
Bus & Motor
Unknown
Mass
Unknown
Launch date (UTC)
2018-04-10 (7 years ago)
Launch vehicle
Unknown
Launch site
Jiuquan Satellite Launch Center, China (JSC)
Object type
Payload
Rocket body
Debris
Shape & HBR
Unknown
Radar Cross Section
Large (>1 m²)

Expand to show TLE details & history

TLE from 13 hours ago
0 CZ-4C DEB
1 43280U 18034F   25184.02768829 -.00000050  00000-0  57847-4 0  9996
2 43280  63.4002 285.2548 0239018   6.2205 354.1697 13.44313796354903
Epoch: 2025-07-03T00:39Z
TLE epoch observation values (Epoch: 2025-07-03T00:39:52.268Z)
Latitude
-0.00001°
Longitude
-6.01332°
Altitude
917.392 km
Speed
7.481 km/s
True Right ascension
19h 01m 01s
True Declination
0° 00' 00"
Sunlit
Object was in full shadow at epoch
Visualization orbit readout
Latitude
-9.16957°
Longitude
177.16316°
Altitude
1,274.83 km
Speed
7.132 km/s
Apparent Right ascension
09h 36m 30s
Apparent Declination
-32° 34' 11"
Sunlit
Object is in daylight
Visualization observer readout
Local Sidereal Time
01:53:08
Azimuth
103.148° ESE
Elevation
-38.843°
Doppler factor
1
Orbital elements
Apogee altitude
1,270.634 km
Perigee altitude
913.53 km
Semi-major axis
7,470.219 km
Eccentricity
0.0239
Inclination
63.4002°
RAAN
285.2548°
Arg. of periapsis
6.2205°
True anomaly
Unknown
Mean anomaly
354.1697°
Eccentric anomaly
Unknown
Mean motion
3.36158 °/min
Orbital period
107.09 mins
BSTAR
0.000057847
Loading maneuver chart data...
Loading SW <> Apogee altitude chart data...
Loading historical data...
Loading historical data...
Loading historical data...
Loading historical data...
Loading historical data...
Loading historical data...
Loading historical data...

CZ-4C DEB Visibility forecast

Observer location: undefined°, undefined°

Span
Click to sort rows by Start time (UTC) header in descending order
Start Az.
Max El. time (UTC)
Max El. Az.
Max El.
End time (UTC)
End Az.
10 mins2025-07-03 15:26:12.163Z347.729° N2025-07-03 15:31:12.163Z35.487° NE21.714°2025-07-03 15:36:12.163Z82.324° E
13 mins2025-07-03 17:17:12.163Z327.512° NNW2025-07-03 17:23:12.163Z105.841° ESE44.79°2025-07-03 17:30:12.163Z145.745° SSE
8 mins2025-07-03 19:09:12.163Z286.338° WNW2025-07-03 19:13:12.163Z249.526° W18.678°2025-07-03 19:17:12.163Z215.38° SW
7 mins2025-07-04 07:09:12.163Z142.03° SSE2025-07-04 07:12:12.163Z104.37° ESE20.164°2025-07-04 07:16:12.163Z63.077° ENE
11 mins2025-07-04 08:57:12.163Z230.449° WSW2025-07-04 09:02:12.163Z325.532° NNW41.106°2025-07-04 09:08:12.163Z28.646° NE
6 mins2025-07-04 10:51:12.163Z303.583° NW2025-07-04 10:54:12.163Z334.91° NNW15.529°2025-07-04 10:57:12.163Z3.84° NNE
|